Regional Weather Roundup
Issued by NWS Charleston, SC

Current Version | Previous Version | Text Only | Print | Product List | Glossary Off
Versions: 1 2 3 4 5 6 7 8 9 10 11 12 13 14 15 16 17 18 19 20 21 22 23 24 25 26 27 28 29 30 31 32 33 34 35 36 37 38 39 40 41 42 43 44 45 46 47 48 49 50

071
ASUS42 KCHS 241227
RWRCHS

REGIONAL WEATHER ROUNDUP
NATIONAL WEATHER SERVICE CHARLESTON SC
800 AM EDT FRI MAR 24 2017

NOTE: "FAIR" INDICATES FEW OR NO CLOUDS BELOW 12,000 FEET WITH NO
SIGNIFICANT WEATHER AND/OR OBSTRUCTIONS TO VISIBILITY.

NOT ALL STATIONS ARE QUALITY CONTROLLED. USE DATA WITH CAUTION...
ESPECIALLY DEWPOINT OBSERVATIONS.

SCZ027-030-031-034>040-042>050-241300-
...SOUTHEAST SOUTH CAROLINA...

CITY           SKY/WX    TMP DP  RH WIND       PRES   REMARKS
N CHARLESTON   PTCLDY    49  47  93 N3        30.48R
6HR MIN TEMP:  47; 6HR MAX TEMP:  50;

WATERFRONT PRK   N/A     53  52  96 NE5       30.47R
JOHNS ISLAND   FAIR      55  52  88 CALM      30.48S
PINOPOLIS        N/A     48  46  93 E7        30.41R
MONCKS CORNER  FAIR      46  43  87 NE5       30.50R FOG
SUMMERVILLE    FAIR      46  45  93 CALM      30.50S
BEAUFORT MCAS  PTCLDY    50  49  96 NE7       30.48R
6HR MIN TEMP:  46; 6HR MAX TEMP:  50;

BEAUFORT ARPT  FAIR      52  50  93 NE8       30.47S
HILTON HEAD IS CLEAR     54  52  94 N7        30.47R
WALTERBORO     SUNNY     46  45  93 NE5       30.50S
ALLENDALE      CLOUDY    48  43  81 CALM      30.48R

...SOUTHERN MIDLANDS AND PEE DEE...

CITY           SKY/WX    TMP DP  RH WIND       PRES   REMARKS
GEORGETOWN     FAIR      46  46 100 CALM      30.51S
KINGSTREE      FAIR      43  37  81 CALM      30.51S
ORANGEBURG     CLEAR     45  39  79 E3        30.50R
6HR MIN TEMP:  45; 6HR MAX TEMP:  47;

BARNWELL       FAIR      48  43  81 CALM      30.49S
AIKEN          FAIR      45  37  76 E3        30.51S
MANNING        FAIR      43  39  87 CALM      30.51R
COLUMBIA       CLOUDY    50  37  61 E5        30.50R
6HR MIN TEMP:  48; 6HR MAX TEMP:  50;

SUMTER         CLOUDY    44  38  77 NE5       30.49R
6HR MIN TEMP:  40; 6HR MAX TEMP:  44;

FLORENCE       CLEAR     41  38  89 NE6       30.52S
6HR MIN TEMP:  38; 6HR MAX TEMP:  42;

MYRTLE BEACH   CLEAR     43  39  87 N7        30.52R
N MYRTLE BEACH CLEAR     41  40  96 N5        30.52R
6HR MIN TEMP:  41; 6HR MAX TEMP:  44;


$$

GAZ063-065-086>088-099>101-113>116-118-119-134>141-150-241300-
...SOUTHEAST GEORGIA...

CITY           SKY/WX    TMP DP  RH WIND       PRES   REMARKS
SAVANNAH ARPT  PTCLDY    48  45  89 N5        30.47R
6HR MIN TEMP:  47; 6HR MAX TEMP:  50;

HUNTER AAF     CLEAR     51  50  99 CALM      30.43R
6HR MIN TEMP:  50; 6HR MAX TEMP:  54;

FORT STEWART   CLEAR     48  45  90 N5        30.43R
6HR MIN TEMP:  47; 6HR MAX TEMP:  51;

STATESBORO     CLEAR     48  47  96 CALM      30.48R
SYLVANIA       PTSUNNY  N/A N/A N/A E6        30.48S
CLAXTON        FAIR     N/A N/A N/A NE3       30.46S

...CSRA...CENTRAL AND FAR SOUTHEAST GEORGIA...

CITY           SKY/WX    TMP DP  RH WIND       PRES   REMARKS
THOMSON        CLEAR     45  39  78 SE5       30.52S
AUGUSTA-BUSH   CLEAR     46  40  79 CALM      30.48R
6HR MIN TEMP:  46; 6HR MAX TEMP:  52;

AUGUSTA-DANIEL PTCLDY    52  38  58 E6        30.48R
SWAINSBORO     FAIR      50  45  81 E5        30.47R
VIDALIA        CLEAR     52  46  82 E6        30.45R
EASTMAN        FAIR      53  42  67 E3        30.46S
HAZLEHURST     FAIR      50  50 100 E5        30.43R
ALMA           CLEAR     50  50 100 NE3       30.42R
6HR MIN TEMP:  50; 6HR MAX TEMP:  52;

WAYCROSS       CLEAR     54  54 100 E6        30.42R
JESUP          FAIR      52  48  87 NE3       30.44R
BAXLEY         FAIR      52  52 100 E5        30.43R
BRUNSWICK      CLEAR     54  54 100 CALM      30.44R
SAINT SIMONS   CLEAR     55  53  93 N5        30.41S
6HR MIN TEMP:  53; 6HR MAX TEMP:  62;


$$

SCZ027-028-034-036>038-045-046-048>050-GAZ119-141-241300-
...LAKE AND SUPPLEMENTAL COASTAL OBSERVATIONS...

STATION/POSITION TIME  TEMP    WIND        PRES    WAVE   SWELL
                       AIR SEA DIR/SP/G            HT/PER HT/PER/DIR
                 (UTC) (F)     (DEG/KT/KT) (MB)    (FT/S) (FT/S/D)
WINYAH BAY       1145   54      50/  9     1032.0S
LAKE MURRAY      1130   47      70/  3/  5 1032.2R
ACE BASIN NERRS  1145   48     350/  2     1032.0R
FORT PULASKI     1200   58 60   40/  8/ 10 1031.4
SAPELO ISLAND    1200   59      50/  4     1030.0

$$

ANZ835-935-AMZ111-154-330-350-352-354-370-450-454-472-241300-
...C-MAN AND BUOY OBSERVATIONS...

STATION/POSITION TIME  TEMP    WIND        PRES    WAVE   SWELL
                       AIR SEA DIR/SP/G            HT/PER HT/PER/DIR
                 (UTC) (F)     (DEG/KT/KT) (MB)    (FT/S) (FT/S/D)
BUOY 41004       1150   66 71   90/ 14/ 16 1031.2R   6/ 7   3/ 80/ 7
BUOY 41008       1150   64 62   90/ 10/ 12 1029.9R   5/ 7   3/100/ 7
FOLLY BEACH CMAN 1200   57      20/  8/  9 1032.5R
CAPERS NEARSHORE 1208   59      50/ 10/ 14 1031.7R
FRIPP NEARSHORE  1208   61 59   50/  2/  6 1031.1R


STATION/POSITION TIME  TEMP    WIND        PRES    WAVE   SWELL
                       AIR SEA DIR/SP/G            HT/PER HT/PER/DIR
                 (UTC) (F)     (DEG/KT/KT) (MB)    (FT/S) (FT/S/D)
5E ST. MARYS GA  1130      63                N/A     5/ 8   2/ 80/11
FRYING PAN BUOY  1210   65 72  170/ 10/ 16 1032.5
BUOY 41025       1150   58 75  180/ 10/ 14 1034.3R   5/10   5/ 60/10
CAPE LOOKOUT NC  1200   47      20/  6/  8 1033.3F
BUOY 41002       1150   63 72   70/ 14/ 17 1033.3R   6/ 8   5/ 40/ 8
BUOY 41010       NOT AVBL
ST AUGUSTINE FL  1200   66 65   90/ 10/ 11 1029.7R


$$




USA.gov is the U.S. government's official web portal to all federal, state and local government web resources and services.